Location: Carrizalito
(10.3833°N, 67.0217°W)
Time: 05:27:15
(UTC+00:00)

Envisat - Visible Passes

Search period start: 09 December 2022 00:00
Search period end: 19 December 2022 00:00
Orbit: 763 x 765 km, 98.2° (Epoch: 08 December)

Date Brightness Start Highest point End Pass type
(mag) Time Alt. Az. Time Alt. Az. Time Alt. Az.
09 Dec 5.7 07:36:23 14° SE 07:36:23 14° SE 07:37:29 10° SE visible
09 Dec 5.1 09:16:34 11° SW 09:16:34 11° SW 09:16:44 10° SW visible
10 Dec 4.7 08:39:14 21° SSW 08:39:14 21° SSW 08:40:51 10° SSW visible
11 Dec 5.1 08:01:54 20° SSE 08:01:54 20° SSE 08:03:36 10° S visible
12 Dec 5.1 09:04:45 13° SW 09:04:45 13° SW 09:05:18 10° SW visible
13 Dec 4.9 08:27:24 20° S 08:27:24 20° S 08:28:56 10° S visible
14 Dec 5.5 07:50:04 16° SSE 07:50:04 16° SSE 07:51:15 10° SSE visible
15 Dec 5.0 08:52:56 14° SSW 08:52:56 14° SSW 08:53:41 10° SSW visible
16 Dec 5.1 08:15:35 18° S 08:15:35 18° S 08:16:54 10° S visible
17 Dec 5.8 07:38:15 12° SE 07:38:15 12° SE 07:38:43 10° SSE visible
18 Dec 5.1 08:41:06 15° SSW 08:41:06 15° SSW 08:41:55 10° SSW visible
